Location: Flotzheim
(48.8375°N, 10.8136°E)
Time: 04:45:37
(UTC+00:00)

CZ-3B R/B - Pass Details

Date: 23 January 2021
Orbit: 277 x 17418 km, 54.8° (Epoch: 26 February)

Event Time Altitude Azimuth Distance (km) Brightness Sun altitude
Rises 17:48:21 0° 299° (WNW) 2,085 5.6 -17.6°
Reaches altitude 10° 17:49:39 10° 299° (WNW) 1,433 4.7 -17.8°
Maximum altitude 17:52:17 87° 213° (SSW) 621 2.0 -18.2°
Enters shadow 17:57:35 17° 123° (ESE) 2,901 5.0 -19.0°
